Kosmos-2425

operational
NORAD ID: 29671 Int'l Des: 2006-062 Owner: KVR/IACG Country: RU Constellation: GLONASS
MEOCIRCULAR

Über Kosmos-2425

Beschreibung wird geladen...

Live-Position

3D-Globus wird geladen...

Nächste Überflüge

Höhenverlauf

Altitude vs Time

uPlot chart will show altitude changes over time

Zweizeiliger Elementsatz

1 29671U 06062B 25352.10669186 .00000110 00000-0 00000-0 0 9995
2 29671 64.6974 200.5537 0021676 178.3657 3.8194 2.12963585147697
Epoch: 18. Dez. 2025 • Age: 16 hours

Aktueller Status

Höhe 19198.2 km
Geschwindigkeit 3.94 km/s
Subsatellitenpunkt -18.46°S, 177.5°W
Startdatum 25. Dez. 2006
Alter 18.9 years
Typ other

Technische Details

Klassifizierung Payload
Masse 1450.00 kg
Trockenmasse 1200.00 kg
Gesamtmasse 1450.00 kg
Länge 4.00 m
Durchmesser 1.50 m
Spannweite 7.80 m
Form Cyl + Ant + 2 Pan
Hersteller RESH
Bus-Typ Uragan
Phasenstatus In Orbit
Besitzer/Staat KVR/IACG/RU

Große Konstellationen

Loading constellations...